www.pogodaiklimat.ru

Погода и климат >> Архив погоды >> Ирак >> Diwaniya


ПОГОДА в Diwaniya

  • Прогноз погоды в Diwaniya
  • Монитор погоды в Diwaniya
  • Климат города

АРХИВ ПОГОДЫ в Diwaniya

Время (UTC), дата Ветер
(напр.,м/с)
 
Видим.   Явления Облачность Т
(С)
Тd
(С)
f
(%)
Тe
(С)
Тes
(С)
Комфортность P
(гПа)
Po
(гПа)
Тmin
(С)
Tmax
(С)
R
(мм)
R24
(мм)
S
(см)
00 14.02 СЗ 3 10 км ясно +12.5 +9.5 82 +11 +11 1018.5 1019.0
03 14.02 СЗ 2 10 км ясно +10.2 +7.0 81 +9 +9 1020.4 1020.0
06 14.02 СЗ 3 10 км ясно +12.2 +7.6 73 +11 +15 1022.9 1023.0 +9.8
09 14.02 СЗ 3 10 км 4/0
[Ci fib]
+18.6 +9.9 57 +19 +28 1023.5 1024.0
12 14.02 СЗ 2 10 км 4/0
[Ci fib]
+21.2 +8.9 45 +22 +27 комфорт 1022.7 1023.0
15 14.02 СЗ 2 10 км 4/0
[]
+19.2 +1.0 30 +20 +20 1023.2 1023.0
21 14.02 СЗ 2 10 км ясно +11.8 +7.0 72 +11 +11 1024.4 1024.0
00 15.02 штиль 0 10 км ясно +11.4 +7.4 76 +11 +11 1024.0 1024.0
03 15.02 СЗ 2 10 км ясно +9.8 +6.8 82 +8 +8 1023.9 1024.0
06 15.02 штиль 0 10 км 5/0
[Ci fib]
+11.6 +7.2 74 +11 +17 1025.2 1025.0 +9.2
15 15.02 штиль 0 8000 м в посл. час дождь 10/10 900 м
[Cu Sc]
+19.3 +7.5 46 +20 +20 1021.4 1021.0
18 15.02 штиль 0 10 км {дождь} 10/10 900 м
[Cu Sc]
+17.2 +7.9 54 +17 +17 1023.9 1024.0 +22.7 0.0
21 15.02 СЗ 2 10 км 10/10 900 м
[Cu Sc]
+16.5 +6.2 51 +17 +17 1022.9 1023.0
00 16.02 СЗ 3 8000 м слабый дождь 10/10 900 м
[Cu Sc]
+14.0 +9.3 73 +13 +13 1022.9 1023.0
03 16.02 СЗ 3 8000 м дождь 10/10 900 м
[Cu Sc]
+13.0 +11.1 88 +12 +12 1011.9 1012.0
06 16.02 ЮВ 3 10 км {дождь} 10/10 900 м
[Cu Sc]
+13.2 +11.7 91 +12 +12 1012.9 1013.0 +12.2 8
09 16.02 ЮВ 4 10 км 10/0
[As trans]
+16.6 +13.7 83 +16 +19 1012.1 1012.0
12 16.02 Ю 3 10 км 10/0
[As trans]
+19.8 +15.4 76 +22 +24 комфорт 1018.9 1019.0
15 16.02 В 2 10 км 10/8 900 м
[Cu Sc As op]
+19.0 +16.3 84 +21 +21 комфорт 1018.2 1018.0
18 16.02 В 2 10 км {дождь} 10/10 600 м
[]
+20.5 +15.7 74 +24 +24 комфорт 1018.6 1019.0 0.0
21 16.02 10 км 10/0
[As op]
+17.4 +15.8 90 1017.4 1017.0
00 17.02 СЗ 2 10 км 10/0
[As trans]
+17.0 +15.3 90 +17 +17 1016.9 1017.0
03 17.02 В 2 10 км слабый дождь 10/0
[As op]
+15.8 +14.4 91 +16 +16 1016.9 1017.0
06 17.02 СВ 2 10 км слабый дождь 10/10 900 м
[St As op]
+16.4 +14.8 90 +16 +16 1016.9 1017.0 +15.5 1
09 17.02 СВ 4 10 км {дождь} 9/9 900 м
[Cu Sc]
+18.6 +15.9 84 +19 +20 1013.6 1014.0
12 17.02 СВ 5 10 км {дождь} 9/9 900 м
[Cu Sc]
+22.0 +16.0 69 +26 +26 душно 1011.2 1011.0
15 17.02 В 3 10 км 4/0
[Ac trans]
+21.6 +15.6 69 +25 +25 комфорт 999.6 1000.0
18 17.02 В 6 6000 м пыль {дождь} 9// 1050 м
[Cb cap Ci sp]
+19.8 +14.1 70 +21 +21 комфорт 998.5 999.0 +23.5
21 17.02 В 7 6000 м слабый дождь 9/9 900 м
[Cu Sc]
+18.8 +15.0 79 +19 +19 999.5 1000.0
03 18.02 штиль 0 6000 м гроза, ливневой дождь 9/9 900 м
[Cb cap]
+17.0 +15.2 89 +17 +17 997.7 998.0
06 18.02 З 4 10 км в посл. час дождь 9/9 900 м
[Cu Sc]
+14.2 +8.2 67 +13 +13 1002.0 1002.0 +12.5 8
12 18.02 З 10 6000 м пыльный позёмок 9/9 900 м
[Cb cap]
+18.2 +8.0 51 +17 +17 1000.9 1001.0
15 18.02 Ю 4 1200 м пыль 10/0
[As op]
+18.0 +10.5 62 +18 +18 1000.6 1001.0
18 18.02 штиль 0 1300 м пыль 10/0
[As op]
+16.4 +10.3 67 +16 +16 1001.9 1002.0 +19.3 0.0
21 18.02 штиль 0 4000 м пыль 10/0
[As op]
+15.8 +11.9 78 +16 +16 1001.9 1002.0
00 19.02 штиль 0 6000 м пыль 3/3 1050 м
[Cu med, cong]
+14.4 +11.8 84 +14 +14 1002.0 1002.0
06 19.02 З 3 10 км ясно +13.8 +8.1 68 +13 +17 1004.8 1005.0 +11.9
09 19.02 З 2 10 км 4/4 1000 м
[]
+17.6 +7.7 52 +18 +25 1005.0 1005.0
12 19.02 З 3 10 км 8/8 1050 м
[Cu med, cong]
+18.8 +5.2 41 +19 +20 1005.2 1005.0
15 19.02 СЗ 2 10 км ясно +16.8 +9.5 62 +17 +17 1006.3 1006.0
18 19.02 штиль 0 10 км ясно +14.0 +10.1 77 +14 +14 1018.3 1018.0 +19.7
21 19.02 штиль 0 10 км ясно +11.7 +9.3 85 +11 +11 1018.4 1018.0
00 20.02 штиль 0 10 км ясно +9.0 +8.4 96 +10 +10 1018.4 1018.0
03 20.02 штиль 0 10 км ясно +9.8 +8.1 89 +9 +9 1018.7 1019.0
06 20.02 штиль 0 <100 м туман 6/0
[Ac trans]
+11.0 +9.0 87 +10 +15 1019.8 1020.0 +9.0
09 20.02 штиль 0 10 км {туман} 4/0
[Cs]
+16.2 +10.1 67 +16 +31 опасность
простуды
1019.1 1019.0
12 20.02 штиль 0 10 км {туман} 8/0
[Ac trans Cs]
+18.7 +9.4 55 +19 +24 1017.4 1017.0
15 20.02 штиль 0 10 км 9/9 900 м
[Cu Sc]
+17.2 +10.2 63 +17 +17 1017.5 1018.0
18 20.02 СВ 2 10 км 9/9 900 м
[Cu Sc]
+15.6 +9.4 67 +16 +16 1017.5 1018.0 +20.0
21 20.02 СВ 2 10 км 10/0
[As trans]
+14.8 +9.3 70 +15 +15 1016.4 1016.0

 

Местоположение метеостанции Diwaniya (Ирак): широта 31.98 долгота 44.98 высота над уровнем моря 20 м.

В архиве по умолчанию представлена погода в Diwaniya за последнюю неделю. Архивные данные за месяц целиком и за предыдущие месяцы, начиная с января 2011 года, Вы можете получить, выбрав интересующий диапазон дат из раскрывающегося списка и нажав кнопку "Ввод!".

Внимание! Время в таблицах - всемирное. Для получения местного времени необходимо прибавить поправку, которая в Diwaniya равна 3 ч.

Смотрите также архив погоды в соседних городах и на ближайших метеорологических станциях:

Погода в Najaf (Ирак) (62 км)
Погода в Hella (Ирак) (72 км)
Погода в Samawah (Ирак) (80 км)
Погода в Ubaydah Bin Al Jarrah (Ирак) (92 км)
Погода в Kut-Al-Hai (Ирак) (103 км)
Погода в Azizyah (Ирак) (105 км)
Погода в Rifai (Ирак) (110 км)
Погода в Karbalaa (Ирак) (115 км)
Погода в Badrah (Ирак) (154 км)
Погода в Nasiriya (Ирак) (155 км)

Пояснения к столбцам:

Ветер - указаны скорость ветра в м/с - средняя за 10 мин, порывы в срок и между сроками (в фигурных скобках) и направление, откуда дует ветер: С - северный, СВ - северо-восточный, В - восточный, ЮВ - юго-восточный, Ю - южный, ЮЗ - юго-западный, З - западный, СЗ - северо-западный.
Видимость - горизонтальная дальность видимости в метрах или километрах. При видимости от 1 до 10 км при отсутствии осадков обычно наблюдается дымка, при ухудшении видимости до 1 км и менее - туман. В сухую погоду видимость может ухудшаться дымом, пылью или мглою.
Явления - указаны атмосферные явления, наблюдавшиеся в срок или в последний час перед сроком; фигурными скобками обозначены явления, наблюдавшиеся между сроками (за 1-3 часа до срока); квадратными скобками обозначены град или гололедные отложения с указанием их диаметра в мм.
Облачность - указаны через наклонную черту общая и нижняя облачность в баллах и высота нижней границы облаков в метрах; квадратными скобками обозначены формы облаков: Ci - перистые, Cs - перисто-слоистые, Cc - перисто-кучевые, Ac - высококучевые, As - высокослоистые, Sc - слоисто-кучевые, Ns - слоисто-дождевые, Cu - кучевые, Cb - кучево-дождевые. Подробнее классификацию облаков см. в Атласе облаков (PDF).
T - Температура воздуха - температура, измеренная на высоте 2 м над землей.
Td - Температура точки росы - температура, при понижении до которой содержащийся в воздухе водяной пар достигнет насыщения.
f - Относительная влажность воздуха - влажноcть воздуха, измеренная на высоте 2 м над землей.
Te - Эффективная температура - температура, которую ощущает одетый по сезону человек в тени. Характеристика душности погоды. При расчете учитывается влияние влажности воздуха и скорости ветра на теплоощущения человека.
Tes - Эффективная температура на солнце - температура, которую ощущает человек, с поправкой на солнечный нагрев. Характеристика знойности погоды. Зависит от высоты солнца над горизонтом, облачности и скорости ветра. Ночью, в пасмурную погоду, а также при ветре 12 м/с и более поправка равна нулю.
P - Атмосферное давление - приведенное к уровню моря атмосферное давление.
Po - Атмосферное давление - измеренное на уровне метеостанции атмосферное давление.
Tmin - Минимальная температура - минимум температуры воздуха на высоте 2 м над землей.
Tmax - Максимальная температура - максимум температуры воздуха на высоте 2 м над землей.
R - Количество осадков - Количество выпавших осадков за период времени, мм. При наведении курсора мыши на число - период времени, за который выпало указанное количество осадков.
R24 - Количество осадков - Количество выпавших осадков за 24 часа, мм.
S - Снежный покров - Высота снежного покрова, см. При наведении курсора мыши на число - состояние снежного покрова и степень покрытия местности в баллах.